M I D A S
Marine Information and Data Acquisition System
Tripno 2157 of the Zeeleeuw from 2011-08-03 05:13:21 to 2011-08-03 14:39:46
Back to CruiseResearch ActivitiesStationsMapUnderway DataData graphs

EquipmentUnitsComments
TimeDGPSUTC
LatitudeDGPSDM.mWGS84
LongitudeDGPSDM.mWGS84
SpeedMeteo Stationm/sRelative wind speed
DirectionMeteo StationdegRelative wind direction
TemperatureMeteo Stationdeg CelciusAir temperature
PressureMeteo StationPaAtmospheric pressure
HumidityMeteo Station%Relative humidity
Missing or incorrect values are displayed as -999
Metereological data collected by the RV Zeeleeuw from 2011-08-03 05:09:19 to 2011-08-03 14:46:54
Time Latitude Longitude Speed Direction Temperature Pressure Humidity
2011-08-03 05:10 51°13.63 2°55.988 -999 25 19.8 101300 44
2011-08-03 05:11 51°13.673 2°55.86 -999 25 19.8 101300 44
2011-08-03 05:12 51°13.734 2°55.736 -999 25 19.8 101310 44
2011-08-03 05:13 51°13.817 2°55.645 -999 25 20.6 101310 48
2011-08-03 05:14 51°13.902 2°55.621 -999 25 20.9 101310 47
2011-08-03 05:15 51°13.961 2°55.646 2.9 37 20.7 101310 46
2011-08-03 05:16 51°13.968 2°55.633 -999 9 20.3 101310 46
2011-08-03 05:17 51°13.998 2°55.565 -999 352 20 101310 47
2011-08-03 05:18 51°14.083 2°55.468 -999 350 19.7 101310 47
2011-08-03 05:19 51°14.197 2°55.364 -999 346 19.6 101300 47
2011-08-03 05:20 51°14.337 2°55.235 -999 350 19.7 101300 48
2011-08-03 05:21 51°14.49 2°55.085 -999 347 19.5 101300 48
2011-08-03 05:22 51°14.66 2°54.897 -999 346 19.4 101300 48
2011-08-03 05:23 51°14.835 2°54.692 -999 343 19.4 101300 48
2011-08-03 05:24 51°15.011 2°54.498 -999 336 19.5 101300 49
2011-08-03 05:25 51°15.186 2°54.303 8.3 333 19.4 101310 49
2011-08-03 05:26 51°15.355 2°54.1 10.8 332 19.3 101310 50
2011-08-03 05:27 51°15.523 2°53.896 9 336 19.1 101310 49
2011-08-03 05:28 51°15.676 2°53.668 10.4 338 19 101320 49
2011-08-03 05:29 51°15.847 2°53.473 45.7 337 18.9 101320 50
2011-08-03 05:30 51°16.031 2°53.308 7.9 340 18.9 101320 48
2011-08-03 05:31 51°16.214 2°53.136 11.1 334 19 101330 48
2011-08-03 05:32 51°16.395 2°52.962 7.6 337 19.1 101330 48
2011-08-03 05:33 51°16.584 2°52.806 7.8 337 19 101330 48
2011-08-03 05:34 51°16.786 2°52.672 9.2 332 19.1 101330 49
2011-08-03 05:35 51°16.978 2°52.53 8 335 19 101330 49
2011-08-03 05:36 51°17.166 2°52.364 7.6 333 19 101330 49
2011-08-03 05:37 51°17.372 2°52.272 7.7 331 18.9 101330 50
2011-08-03 05:38 51°17.584 2°52.214 7.7 333 18.8 101330 50
2011-08-03 05:39 51°17.793 2°52.132 6.9 329 18.7 101330 50
2011-08-03 05:40 51°18.001 2°52.041 8 331 18.8 101330 52
2011-08-03 05:41 51°18.206 2°51.935 8.9 329 18.8 101330 52
2011-08-03 05:42 51°18.411 2°51.826 7.7 329 18.6 101340 52
2011-08-03 05:43 51°18.62 2°51.728 7.1 329 18.6 101340 53
2011-08-03 05:44 51°18.827 2°51.625 8.7 330 18.5 101340 52
2011-08-03 05:45 51°19.032 2°51.513 7.5 327 18.5 101340 53
2011-08-03 05:46 51°19.237 2°51.397 9.7 327 18.4 101350 53
2011-08-03 05:47 51°19.443 2°51.298 10.1 328 18.4 101340 54
2011-08-03 05:48 51°19.645 2°51.182 9.4 328 18.3 101350 54
2011-08-03 05:49 51°19.852 2°51.08 7.6 330 18.3 101350 54
2011-08-03 05:50 51°20.051 2°50.947 10.4 331 18.2 101350 55
2011-08-03 05:51 51°20.253 2°50.818 7.5 330 18.2 101350 55
2011-08-03 05:52 51°20.458 2°50.703 9 331 18.1 101360 55
2011-08-03 05:53 51°20.665 2°50.6 11.2 334 18.1 101350 55
2011-08-03 05:54 51°20.873 2°50.488 9.6 334 18 101350 54
2011-08-03 05:55 51°21.077 2°50.37 7.6 336 18 101350 55
2011-08-03 05:56 51°21.285 2°50.268 9.6 334 17.9 101350 54
2011-08-03 05:57 51°21.495 2°50.182 8.2 337 17.9 101360 55
2011-08-03 05:58 51°21.706 2°50.09 10 337 17.9 101360 54
2011-08-03 05:59 51°21.919 2°50.009 8.1 337 17.9 101360 54
2011-08-03 06:00 51°22.129 2°49.912 7.7 336 18 101370 53
2011-08-03 06:01 51°22.341 2°49.826 9 336 18 101360 53
2011-08-03 06:02 51°22.548 2°49.723 7.7 337 18 101370 53
2011-08-03 06:03 51°22.76 2°49.644 7.2 340 17.9 101370 53
2011-08-03 06:04 51°22.97 2°49.541 8.1 340 18 101370 54
2011-08-03 06:05 51°23.183 2°49.454 6.6 341 18 101370 53
2011-08-03 06:06 51°23.392 2°49.343 7.5 339 18 101370 53
2011-08-03 06:07 51°23.602 2°49.244 9.2 345 18 101370 53
2011-08-03 06:08 51°23.808 2°49.127 7.7 343 18 101370 53
2011-08-03 06:09 51°24.019 2°49.034 7.6 342 18.1 101370 53
2011-08-03 06:10 51°24.226 2°48.928 7 338 18.1 101370 53
2011-08-03 06:11 51°24.439 2°48.86 6.6 340 18.2 101370 53
2011-08-03 06:12 51°24.651 2°48.782 7.3 338 18.2 101370 53
2011-08-03 06:13 51°24.867 2°48.729 6.4 338 18.2 101370 53
2011-08-03 06:14 51°25.078 2°48.65 6.9 342 18.1 101370 54
2011-08-03 06:15 51°25.294 2°48.595 6.6 342 18 101370 53
2011-08-03 06:16 51°25.509 2°48.523 6.9 345 17.9 101360 52
2011-08-03 06:17 51°25.726 2°48.467 7.9 348 18 101360 53
2011-08-03 06:18 51°25.943 2°48.393 7.4 350 18 101350 53
2011-08-03 06:19 51°26.163 2°48.33 6.6 350 18 101360 53
2011-08-03 06:20 51°26.379 2°48.242 6.7 351 18.1 101360 52
2011-08-03 06:21 51°26.595 2°48.17 6.4 349 18.1 101350 52
2011-08-03 06:22 51°26.808 2°48.081 6.8 351 18.1 101360 51
2011-08-03 06:23 51°27.023 2°48.008 5.9 352 18.1 101360 52
2011-08-03 06:24 51°27.233 2°47.915 6.1 351 18.1 101360 51
2011-08-03 06:25 51°27.445 2°47.825 6.1 350 18.2 101360 51
2011-08-03 06:26 51°27.66 2°47.753 6.2 352 18.1 101360 52
2011-08-03 06:27 51°27.873 2°47.675 3.3 350 18.2 101370 52
2011-08-03 06:28 51°28.087 2°47.595 5.9 350 18.1 101370 52
2011-08-03 06:29 51°28.299 2°47.507 6.7 349 18.2 101370 53
2011-08-03 06:30 51°28.516 2°47.438 5.8 348 18.2 101360 53
2011-08-03 06:31 51°28.73 2°47.347 6.2 351 18.2 101370 51
2011-08-03 06:32 51°28.947 2°47.279 6.6 352 18.2 101360 51
2011-08-03 06:33 51°29.161 2°47.191 7 351 18.1 101360 52
2011-08-03 06:34 51°29.376 2°47.125 6.9 354 18.2 101360 52
2011-08-03 06:35 51°29.59 2°47.05 5.8 352 18.2 101360 51
2011-08-03 06:36 51°29.801 2°46.958 6 349 18.3 101370 51
2011-08-03 06:37 51°30.015 2°46.887 5.7 351 18.4 101370 51
2011-08-03 06:38 51°30.228 2°46.798 6.5 349 18.4 101370 51
2011-08-03 06:39 51°30.443 2°46.723 5.2 350 18.4 101370 51
2011-08-03 06:40 51°30.656 2°46.642 5.7 350 18.4 101370 51
2011-08-03 06:41 51°30.87 2°46.561 5.4 349 18.3 101370 51
2011-08-03 06:42 51°31.084 2°46.489 5 349 18.4 101370 50
2011-08-03 06:43 51°31.296 2°46.397 5.7 350 18.4 101380 51
2011-08-03 06:44 51°31.51 2°46.318 5 350 18.3 101370 50
2011-08-03 06:45 51°31.724 2°46.241 4.8 342 18.4 101380 51
2011-08-03 06:46 51°31.936 2°46.153 6.5 329 18.4 101390 52
2011-08-03 06:47 51°32.152 2°46.09 6.9 329 18.4 101380 51
2011-08-03 06:48 51°32.365 2°46.007 6.5 331 18.3 101380 50
2011-08-03 06:49 51°32.58 2°45.937 5.6 336 18.3 101380 49
2011-08-03 06:50 51°32.792 2°45.849 5.1 340 18.3 101380 50
2011-08-03 06:51 51°33.008 2°45.781 6.1 335 18.4 101380 50
2011-08-03 06:52 51°33.222 2°45.699 6.2 338 18.5 101390 49
2011-08-03 06:53 51°33.439 2°45.632 5.5 336 18.5 101380 49
2011-08-03 06:54 51°33.654 2°45.544 6.7 336 18.5 101390 49
2011-08-03 06:55 51°33.874 2°45.482 6.6 335 18.6 101390 50
2011-08-03 06:56 51°34.088 2°45.39 7.8 337 18.5 101390 49
2011-08-03 06:57 51°34.305 2°45.314 6.8 333 18.5 101390 49
2011-08-03 06:58 51°34.521 2°45.231 9 333 18.6 101390 50
2011-08-03 06:59 51°34.74 2°45.152 9.5 333 18.5 101390 49
2011-08-03 07:00 51°34.952 2°45.049 9 334 18.5 101390 51
2011-08-03 07:01 51°35.167 2°44.973 8.3 332 18.4 101390 50
2011-08-03 07:02 51°35.381 2°44.891 7.6 332 18.4 101390 50
2011-08-03 07:03 51°35.595 2°44.817 8.9 333 18.4 101400 51
2011-08-03 07:04 51°35.806 2°44.722 7.9 334 18.3 101400 52
2011-08-03 07:05 51°36.018 2°44.634 5.8 336 18.3 101400 50
2011-08-03 07:06 51°36.233 2°44.559 7.5 333 18.3 101400 51
2011-08-03 07:07 51°36.449 2°44.496 8 333 18.3 101400 51
2011-08-03 07:08 51°36.663 2°44.413 7.9 334 18.2 101400 51
2011-08-03 07:09 51°36.875 2°44.325 7.7 334 18.2 101400 52
2011-08-03 07:10 51°37.09 2°44.261 6.4 336 18.2 101400 52
2011-08-03 07:11 51°37.304 2°44.181 6.1 334 18.2 101400 51
2011-08-03 07:12 51°37.518 2°44.101 9.2 333 18.2 101410 52
2011-08-03 07:13 51°37.731 2°44.017 7.4 334 18.1 101410 52
2011-08-03 07:14 51°37.945 2°43.928 7.9 334 18.1 101410 52
2011-08-03 07:15 51°38.164 2°43.86 7 334 18.1 101410 53
2011-08-03 07:16 51°38.378 2°43.772 7.1 335 18.1 101410 52
2011-08-03 07:17 51°38.595 2°43.701 8.6 334 18 101400 52
2011-08-03 07:18 51°38.808 2°43.613 7.6 333 18 101400 52
2011-08-03 07:19 51°39.025 2°43.546 6.3 334 18 101410 52
2011-08-03 07:20 51°39.239 2°43.462 7.5 334 17.9 101410 53
2011-08-03 07:21 51°39.453 2°43.38 6.8 332 18 101410 52
2011-08-03 07:22 51°39.67 2°43.326 6.4 335 17.9 101400 52
2011-08-03 07:23 51°39.887 2°43.287 6.1 337 17.9 101400 53
2011-08-03 07:24 51°40.103 2°43.231 5.9 334 17.9 101410 52
2011-08-03 07:25 51°40.318 2°43.175 6.2 335 17.9 101400 52
2011-08-03 07:26 51°40.535 2°43.143 5 337 17.9 101410 53
2011-08-03 07:27 51°40.749 2°43.081 5.8 335 17.9 101410 53
2011-08-03 07:28 51°40.964 2°43.032 5.8 335 17.9 101410 52
2011-08-03 07:29 51°41.178 2°42.986 5.8 335 17.9 101410 54
2011-08-03 07:30 51°41.392 2°42.928 5.6 334 17.9 101410 53
2011-08-03 07:31 51°41.607 2°42.894 5.1 335 17.9 101410 54
2011-08-03 07:32 51°41.82 2°42.835 5.5 332 17.8 101410 52
2011-08-03 07:33 51°42.035 2°42.792 6.6 331 17.8 101410 52
2011-08-03 07:34 51°42.247 2°42.731 6.1 330 17.9 101410 53
2011-08-03 07:35 51°42.462 2°42.688 6.2 330 17.9 101410 53
2011-08-03 07:36 51°42.675 2°42.638 5.8 330 17.9 101410 53
2011-08-03 07:37 51°42.887 2°42.574 6.3 331 17.8 101410 53
2011-08-03 07:38 51°43.099 2°42.516 8.5 332 17.8 101400 52
2011-08-03 07:39 51°43.311 2°42.454 5.9 331 17.8 101410 54
2011-08-03 07:40 51°43.522 2°42.391 6.6 330 17.8 101410 54
2011-08-03 07:41 51°43.733 2°42.332 7.5 331 17.7 101410 54
2011-08-03 07:42 51°43.944 2°42.275 7.9 331 17.7 101410 53
2011-08-03 07:43 51°44.154 2°42.211 6.9 330 17.8 101410 54
2011-08-03 07:44 51°44.365 2°42.159 7.2 331 17.7 101410 54
2011-08-03 07:45 51°44.574 2°42.085 6.6 331 17.7 101420 54
2011-08-03 07:46 51°44.75 2°42.038 3.9 330 17.7 101420 53
2011-08-03 07:47 51°44.854 2°42.004 1.4 329 17.7 101420 53
2011-08-03 07:48 51°44.933 2°41.981 -999 328 17.8 101420 54
2011-08-03 07:49 51°44.996 2°41.967 -999 328 17.8 101420 54
2011-08-03 07:50 51°45.041 2°41.957 -999 328 17.8 101420 54
2011-08-03 07:51 51°45.053 2°41.946 -999 24 17.9 101420 54
2011-08-03 07:52 51°45.06 2°41.933 -999 25 18 101420 54
2011-08-03 07:53 51°45.082 2°41.922 -999 318 18 101420 54
2011-08-03 07:54 51°45.127 2°41.899 -999 324 18 101420 54
2011-08-03 07:55 51°45.169 2°41.855 -999 326 17.9 101420 54
2011-08-03 07:56 51°45.202 2°41.798 -999 327 17.9 101420 54
2011-08-03 07:57 51°45.233 2°41.732 -999 328 17.9 101420 54
2011-08-03 07:58 51°45.258 2°41.658 -999 330 17.9 101420 54
2011-08-03 07:59 51°45.273 2°41.586 -999 332 17.9 101420 54
2011-08-03 08:00 51°45.283 2°41.51 -999 334 17.9 101420 54
2011-08-03 08:01 51°45.287 2°41.431 -999 333 17.9 101420 54
2011-08-03 08:02 51°45.286 2°41.351 -999 336 17.9 101420 54
2011-08-03 08:03 51°45.279 2°41.272 -999 339 17.9 101420 54
2011-08-03 08:04 51°45.266 2°41.199 -999 342 17.9 101420 54
2011-08-03 08:05 51°45.247 2°41.127 -999 345 17.9 101420 54
2011-08-03 08:06 51°45.223 2°41.063 -999 348 17.8 101420 54
2011-08-03 08:07 51°45.192 2°41 -999 349 17.8 101420 53
2011-08-03 08:08 51°45.154 2°40.937 -999 350 17.7 101420 54
2011-08-03 08:09 51°45.111 2°40.879 -999 350 17.7 101420 54
2011-08-03 08:10 51°45.066 2°40.828 -999 351 17.7 101420 54
2011-08-03 08:11 51°45.019 2°40.787 -999 354 17.7 101410 54
2011-08-03 08:12 51°44.971 2°40.758 -999 354 17.6 101410 54
2011-08-03 08:13 51°44.922 2°40.737 -999 354 17.6 101410 54
2011-08-03 08:14 51°44.872 2°40.724 -999 354 17.6 101410 54
2011-08-03 08:15 51°44.823 2°40.721 -999 350 17.7 101410 54
2011-08-03 08:16 51°44.775 2°40.739 -999 328 17.7 101410 54
2011-08-03 08:17 51°44.776 2°40.866 3.6 325 17.7 101400 53
2011-08-03 08:18 51°44.843 2°41.094 5.4 327 17.7 101400 55
2011-08-03 08:19 51°44.907 2°41.358 5.6 328 17.7 101400 54
2011-08-03 08:20 51°44.943 2°41.64 5.1 328 17.7 101400 54
2011-08-03 08:21 51°44.992 2°41.857 3.1 328 17.7 101410 54
2011-08-03 08:22 51°45.028 2°41.96 -999 324 17.8 101410 54
2011-08-03 08:23 51°45.028 2°42.01 -999 320 17.8 101410 54
2011-08-03 08:24 51°45.018 2°42.012 -999 320 17.9 101410 54
2011-08-03 08:25 51°45.006 2°42.006 -999 320 18 101410 54
2011-08-03 08:26 51°44.994 2°41.996 -999 320 18.1 101410 54
2011-08-03 08:27 51°44.982 2°41.984 -999 320 18.1 101400 54
2011-08-03 08:28 51°44.97 2°41.97 -999 320 18.2 101410 54
2011-08-03 08:29 51°44.958 2°41.955 -999 318 18.3 101410 54
2011-08-03 08:30 51°44.946 2°41.94 -999 25 18.3 101410 54
2011-08-03 08:31 51°44.934 2°41.924 -999 25 18.4 101410 54
2011-08-03 08:32 51°44.921 2°41.905 -999 25 18.4 101410 54
2011-08-03 08:33 51°44.91 2°41.887 -999 25 18.4 101410 53
2011-08-03 08:34 51°44.898 2°41.87 -999 25 18.3 101410 53
2011-08-03 08:35 51°44.886 2°41.853 -999 319 18.3 101410 53
2011-08-03 08:36 51°44.874 2°41.837 -999 34 18.2 101410 53
2011-08-03 08:37 51°44.863 2°41.82 -999 33 18.2 101410 53
2011-08-03 08:38 51°44.851 2°41.804 -999 32 18.1 101410 53
2011-08-03 08:39 51°44.839 2°41.788 -999 31 18.1 101410 53
2011-08-03 08:40 51°44.826 2°41.771 -999 29 18.1 101410 53
2011-08-03 08:41 51°44.813 2°41.754 -999 29 18.1 101420 53
2011-08-03 08:42 51°44.799 2°41.738 -999 29 18.1 101420 53
2011-08-03 08:43 51°44.783 2°41.721 -999 29 18.1 101420 53
2011-08-03 08:44 51°44.768 2°41.705 -999 27 18 101420 53
2011-08-03 08:45 51°44.752 2°41.692 -999 27 18 101420 53
2011-08-03 08:46 51°44.735 2°41.678 -999 27 18 101420 53
2011-08-03 08:47 51°44.711 2°41.652 -999 27 18 101420 54
2011-08-03 08:48 51°44.655 2°41.637 -999 339 18 101420 53
2011-08-03 08:49 51°44.552 2°41.687 3.4 335 18 101420 53
2011-08-03 08:50 51°44.391 2°41.761 5 333 18 101420 53
2011-08-03 08:51 51°44.191 2°41.857 6.2 333 18 101420 53
2011-08-03 08:52 51°43.981 2°41.983 5.4 334 18 101420 53
2011-08-03 08:53 51°43.764 2°42.087 5.8 335 18 101420 54
2011-08-03 08:54 51°43.551 2°42.205 6.6 335 18 101420 53
2011-08-03 08:55 51°43.334 2°42.31 5.9 336 18 101420 54
2011-08-03 08:56 51°43.121 2°42.426 6 336 18.1 101420 54
2011-08-03 08:57 51°42.905 2°42.531 3.3 337 18.1 101420 54
2011-08-03 08:58 51°42.691 2°42.642 5.3 336 18.1 101420 53
2011-08-03 08:59 51°42.476 2°42.751 5.4 337 18.1 101420 54
2011-08-03 09:00 51°42.267 2°42.881 5.7 336 18.1 101420 54
2011-08-03 09:01 51°42.053 2°42.996 5.9 335 18.1 101430 53
2011-08-03 09:02 51°41.843 2°43.124 5.3 335 18.1 101420 53
2011-08-03 09:03 51°41.633 2°43.251 5.5 335 18 101430 53
2011-08-03 09:04 51°41.426 2°43.386 6.4 335 18 101420 53
2011-08-03 09:05 51°41.211 2°43.499 6.7 335 18 101430 54
2011-08-03 09:06 51°40.997 2°43.621 5.6 336 18 101420 54
2011-08-03 09:07 51°40.783 2°43.742 5.1 336 18 101430 54
2011-08-03 09:08 51°40.573 2°43.874 5.2 336 18 101430 55
2011-08-03 09:09 51°40.367 2°44.023 6.3 337 18 101430 54
2011-08-03 09:10 51°40.156 2°44.154 5.2 337 18.1 101430 55
2011-08-03 09:11 51°39.946 2°44.292 5.8 337 18.1 101430 55
2011-08-03 09:12 51°39.733 2°44.418 5 336 18.1 101430 55
2011-08-03 09:13 51°39.526 2°44.562 5.1 336 18 101430 55
2011-08-03 09:14 51°39.315 2°44.698 4.7 336 18 101430 54
2011-08-03 09:15 51°39.103 2°44.832 5.4 338 18.1 101430 55
2011-08-03 09:16 51°38.895 2°44.98 5 338 18.1 101430 55
2011-08-03 09:17 51°38.679 2°45.107 5.1 337 18.1 101430 54
2011-08-03 09:18 51°38.469 2°45.252 4.3 339 18.1 101430 55
2011-08-03 09:19 51°38.255 2°45.39 4.8 339 18.1 101430 54
2011-08-03 09:20 51°38.038 2°45.518 4.8 341 18.1 101430 55
2011-08-03 09:21 51°37.824 2°45.649 5.4 339 18.1 101430 55
2011-08-03 09:22 51°37.614 2°45.789 5.2 337 18.1 101430 55
2011-08-03 09:23 51°37.42 2°45.963 5.1 337 18.1 101430 56
2011-08-03 09:24 51°37.224 2°46.13 5 338 18.1 101440 54
2011-08-03 09:25 51°37.029 2°46.297 4.6 337 18.2 101440 54
2011-08-03 09:26 51°36.834 2°46.462 5.3 336 18.2 101440 55
2011-08-03 09:27 51°36.638 2°46.62 4.5 337 18.2 101440 54
2011-08-03 09:28 51°36.446 2°46.781 5.2 338 18.3 101430 56
2011-08-03 09:29 51°36.245 2°46.925 5.1 336 18.2 101430 55
2011-08-03 09:30 51°36.049 2°47.097 5.2 334 18.2 101430 55
2011-08-03 09:31 51°35.843 2°47.251 5.9 334 18.2 101430 56
2011-08-03 09:32 51°35.649 2°47.42 5.7 331 18.3 101430 55
2011-08-03 09:33 51°35.461 2°47.575 4.5 331 18.3 101430 55
2011-08-03 09:34 51°35.267 2°47.712 5.4 332 18.3 101430 55
2011-08-03 09:35 51°35.09 2°47.872 5.2 331 18.3 101430 55
2011-08-03 09:36 51°34.937 2°48.074 4.9 331 18.3 101430 54
2011-08-03 09:37 51°34.777 2°48.266 6.1 331 18.3 101440 55
2011-08-03 09:38 51°34.618 2°48.452 5.3 332 18.3 101440 54
2011-08-03 09:39 51°34.467 2°48.649 5.4 332 18.3 101440 56
2011-08-03 09:40 51°34.306 2°48.828 4.8 333 18.3 101440 55
2011-08-03 09:41 51°34.151 2°49.016 5.4 334 18.3 101440 55
2011-08-03 09:42 51°33.999 2°49.203 4.8 333 18.3 101440 54
2011-08-03 09:43 51°33.837 2°49.371 5.6 333 18.3 101440 54
2011-08-03 09:44 51°33.683 2°49.552 5.5 333 18.3 101440 56
2011-08-03 09:45 51°33.531 2°49.736 5.4 334 18.3 101440 54
2011-08-03 09:46 51°33.37 2°49.906 5.2 335 18.3 101440 54
2011-08-03 09:47 51°33.216 2°50.087 5.4 337 18.3 101430 55
2011-08-03 09:48 51°33.061 2°50.268 4.9 338 18.3 101430 55
2011-08-03 09:49 51°32.898 2°50.437 5.3 338 18.3 101430 55
2011-08-03 09:50 51°32.739 2°50.617 5.2 338 18.3 101430 54
2011-08-03 09:51 51°32.582 2°50.8 5.4 337 18.4 101430 54
2011-08-03 09:52 51°32.42 2°50.978 5.9 338 18.4 101430 54
2011-08-03 09:53 51°32.276 2°51.182 5.5 338 18.4 101430 55
2011-08-03 09:54 51°32.125 2°51.38 4.8 338 18.4 101430 53
2011-08-03 09:55 51°31.99 2°51.559 4 340 18.4 101430 53
2011-08-03 09:56 51°31.899 2°51.717 3 341 18.4 101430 54
2011-08-03 09:57 51°31.813 2°51.857 2.4 342 18.4 101430 53
2011-08-03 09:58 51°31.746 2°51.947 0.3 347 18.5 101430 53
2011-08-03 09:59 51°31.689 2°52.011 -999 349 18.5 101430 54
2011-08-03 10:00 51°31.631 2°52.069 -999 349 18.4 101430 53
2011-08-03 10:01 51°31.537 2°52.16 3.7 341 18.4 101430 54
2011-08-03 10:02 51°31.442 2°52.248 0.1 354 18.4 101430 52
2011-08-03 10:03 51°31.399 2°52.269 -999 13 18.5 101430 54
2011-08-03 10:04 51°31.372 2°52.247 -999 20 18.5 101430 54
2011-08-03 10:05 51°31.345 2°52.223 -999 23 18.5 101440 54
2011-08-03 10:06 51°31.318 2°52.2 -999 25 18.5 101440 54
2011-08-03 10:07 51°31.288 2°52.176 -999 26 18.5 101430 54
2011-08-03 10:08 51°31.26 2°52.153 -999 26 18.6 101430 54
2011-08-03 10:09 51°31.231 2°52.13 -999 27 18.6 101430 54
2011-08-03 10:10 51°31.201 2°52.108 -999 26 18.6 101430 52
2011-08-03 10:11 51°31.172 2°52.087 -999 26 18.6 101430 54
2011-08-03 10:12 51°31.143 2°52.066 -999 26 18.7 101430 54
2011-08-03 10:13 51°31.113 2°52.043 -999 28 18.7 101430 54
2011-08-03 10:14 51°31.08 2°52.023 -999 25 18.7 101430 54
2011-08-03 10:15 51°31.039 2°52.024 -999 18 18.7 101430 54
2011-08-03 10:16 51°30.999 2°52.054 -999 15 18.8 101420 54
2011-08-03 10:17 51°30.968 2°52.098 -999 15 18.8 101430 54
2011-08-03 10:18 51°30.949 2°52.141 -999 15 18.8 101430 53
2011-08-03 10:19 51°30.94 2°52.181 -999 15 18.9 101420 54
2011-08-03 10:20 51°30.943 2°52.214 -999 15 19.1 101420 54
2011-08-03 10:21 51°30.955 2°52.233 -999 337 19.3 101420 55
2011-08-03 10:22 51°30.97 2°52.231 -999 250 19.4 101420 54
2011-08-03 10:23 51°30.986 2°52.214 -999 247 19.5 101420 54
2011-08-03 10:24 51°31.008 2°52.192 -999 25 19.5 101430 54
2011-08-03 10:25 51°31.032 2°52.158 -999 25 19.5 101420 53
2011-08-03 10:26 51°31.067 2°52.111 1.7 27 19.5 101420 52
2011-08-03 10:27 51°31.168 2°52.173 3.4 323 19.4 101420 53
2011-08-03 10:28 51°31.324 2°52.163 4.8 322 19.3 101420 53
2011-08-03 10:29 51°31.483 2°52.205 3.7 323 19.3 101420 53
2011-08-03 10:30 51°31.504 2°52.315 0.1 353 19.3 101420 53
2011-08-03 10:31 51°31.462 2°52.368 -999 14 19.1 101430 52
2011-08-03 10:32 51°31.424 2°52.405 -999 23 19 101430 52
2011-08-03 10:33 51°31.403 2°52.444 -999 28 19 101430 52
2011-08-03 10:34 51°31.394 2°52.478 -999 258 18.9 101430 51
2011-08-03 10:35 51°31.399 2°52.502 -999 269 19 101430 53
2011-08-03 10:36 51°31.408 2°52.507 0.1 267 19.1 101430 53
2011-08-03 10:37 51°31.388 2°52.48 1.3 25 19.1 101440 52
2011-08-03 10:38 51°31.362 2°52.443 -999 25 19 101440 52
2011-08-03 10:39 51°31.341 2°52.416 -999 26 18.9 101440 52
2011-08-03 10:40 51°31.32 2°52.388 -999 26 18.8 101440 52
2011-08-03 10:41 51°31.297 2°52.362 -999 26 18.9 101440 53
2011-08-03 10:42 51°31.273 2°52.335 -999 26 18.9 101440 51
2011-08-03 10:43 51°31.25 2°52.309 -999 26 18.8 101440 53
2011-08-03 10:44 51°31.228 2°52.285 -999 26 18.8 101440 53
2011-08-03 10:45 51°31.205 2°52.261 -999 26 18.7 101440 52
2011-08-03 10:46 51°31.182 2°52.238 -999 26 18.7 101440 53
2011-08-03 10:47 51°31.16 2°52.215 -999 26 18.6 101440 53
2011-08-03 10:48 51°31.139 2°52.193 -999 26 18.6 101430 53
2011-08-03 10:49 51°31.119 2°52.172 -999 26 18.6 101430 53
2011-08-03 10:50 51°31.097 2°52.151 -999 26 18.6 101440 51
2011-08-03 10:51 51°31.076 2°52.132 -999 26 18.7 101430 53
2011-08-03 10:52 51°31.055 2°52.112 -999 26 18.7 101430 53
2011-08-03 10:53 51°31.047 2°52.111 0.1 260 18.7 101430 53
2011-08-03 10:54 51°31.053 2°52.171 -999 256 18.8 101430 53
2011-08-03 10:55 51°30.996 2°52.313 0.5 346 18.8 101430 53
2011-08-03 10:56 51°30.934 2°52.563 3.4 343 18.7 101430 53
2011-08-03 10:57 51°30.847 2°52.845 3.3 342 18.8 101430 53
2011-08-03 10:58 51°30.752 2°53.126 2.8 340 18.8 101430 51
2011-08-03 10:59 51°30.673 2°53.414 -999 343 18.9 101430 53
2011-08-03 11:00 51°30.582 2°53.697 -999 341 18.8 101430 53
2011-08-03 11:01 51°30.505 2°53.985 0.1 342 18.8 101430 53
2011-08-03 11:02 51°30.424 2°54.27 -999 341 18.9 101430 53
2011-08-03 11:03 51°30.34 2°54.553 0.1 339 18.9 101430 53
2011-08-03 11:04 51°30.25 2°54.828 -999 340 18.9 101420 53
2011-08-03 11:05 51°30.172 2°55.101 3.9 338 18.9 101430 53
2011-08-03 11:06 51°30.083 2°55.368 4 337 18.9 101420 53
2011-08-03 11:07 51°30.009 2°55.637 4.6 337 18.9 101420 54
2011-08-03 11:08 51°29.924 2°55.898 5.2 337 19 101420 54
2011-08-03 11:09 51°29.843 2°56.161 4.1 338 19 101420 53
2011-08-03 11:10 51°29.766 2°56.427 3.8 336 19 101420 54
2011-08-03 11:11 51°29.678 2°56.687 4.1 337 19 101420 53
2011-08-03 11:12 51°29.591 2°56.946 4.2 338 19 101420 52
2011-08-03 11:13 51°29.513 2°57.212 3.9 338 19 101420 52
2011-08-03 11:14 51°29.426 2°57.479 4 341 19.1 101420 51
2011-08-03 11:15 51°29.341 2°57.749 4.3 336 19.1 101420 53
2011-08-03 11:16 51°29.253 2°58.019 4.2 339 19.2 101420 52
2011-08-03 11:17 51°29.171 2°58.291 3.9 337 19.2 101420 52
2011-08-03 11:18 51°29.086 2°58.56 3.9 337 19.3 101420 53
2011-08-03 11:19 51°28.996 2°58.825 4.1 337 19.3 101420 54
2011-08-03 11:20 51°28.912 2°59.093 4.1 338 19.3 101420 52
2011-08-03 11:21 51°28.82 2°59.357 3.9 337 19.2 101420 53
2011-08-03 11:22 51°28.742 2°59.63 3.6 338 19.2 101420 52
2011-08-03 11:23 51°28.649 2°59.895 4.3 339 19.2 101420 52
2011-08-03 11:24 51°28.564 3°0.165 3.7 338 19.2 101420 54
2011-08-03 11:25 51°28.481 3°0.443 3.8 338 19.2 101420 53
2011-08-03 11:26 51°28.392 3°0.718 4.8 336 19.3 101420 53
2011-08-03 11:27 51°28.312 3°0.998 4.3 336 19.3 101420 53
2011-08-03 11:28 51°28.227 3°1.275 4.8 338 19.3 101420 53
2011-08-03 11:29 51°28.135 3°1.545 4 338 19.2 101420 53
2011-08-03 11:30 51°28.056 3°1.822 4.6 338 19.2 101420 52
2011-08-03 11:31 51°27.978 3°2.099 3.6 337 19.2 101420 52
2011-08-03 11:32 51°27.955 3°2.391 3.9 335 19.3 101420 53
2011-08-03 11:33 51°27.929 3°2.685 3.7 337 19.2 101420 53
2011-08-03 11:34 51°27.9 3°2.979 4 336 19.3 101420 53
2011-08-03 11:35 51°27.866 3°3.274 3.9 335 19.3 101420 53
2011-08-03 11:36 51°27.847 3°3.571 3.4 334 19.3 101420 52
2011-08-03 11:37 51°27.833 3°3.87 3.7 334 19.3 101420 53
2011-08-03 11:38 51°27.812 3°4.169 4 335 19.3 101420 50
2011-08-03 11:39 51°27.777 3°4.47 4 335 19.3 101420 53
2011-08-03 11:40 51°27.744 3°4.772 3.9 335 19.3 101420 53
2011-08-03 11:41 51°27.722 3°5.075 3.9 334 19.2 101420 51
2011-08-03 11:42 51°27.675 3°5.377 3.4 337 19.2 101420 51
2011-08-03 11:43 51°27.614 3°5.675 3.7 336 19.3 101420 53
2011-08-03 11:44 51°27.556 3°5.976 3.6 336 19.3 101420 51
2011-08-03 11:45 51°27.505 3°6.278 3.2 335 19.3 101420 52
2011-08-03 11:46 51°27.496 3°6.584 3.1 332 19.3 101420 51
2011-08-03 11:47 51°27.479 3°6.891 3.6 332 19.3 101410 51
2011-08-03 11:48 51°27.467 3°7.199 3.5 332 19.3 101410 52
2011-08-03 11:49 51°27.456 3°7.507 3.6 333 19.3 101420 53
2011-08-03 11:50 51°27.444 3°7.815 3.2 330 19.3 101420 53
2011-08-03 11:51 51°27.424 3°8.125 3.8 333 19.3 101420 52
2011-08-03 11:52 51°27.406 3°8.437 3.3 330 19.2 101420 52
2011-08-03 11:53 51°27.391 3°8.749 3.4 331 19.2 101420 54
2011-08-03 11:54 51°27.393 3°9.059 3.5 331 19.2 101420 51
2011-08-03 11:55 51°27.378 3°9.373 3.3 332 19.2 101420 54
2011-08-03 11:56 51°27.376 3°9.686 3.1 331 19.2 101420 54
2011-08-03 11:57 51°27.373 3°10.001 2.8 331 19.2 101420 54
2011-08-03 11:58 51°27.362 3°10.316 3.3 330 19.2 101420 53
2011-08-03 11:59 51°27.363 3°10.629 2.7 330 19.2 101420 53
2011-08-03 12:00 51°27.357 3°10.945 2.6 332 19.1 101420 54
2011-08-03 12:01 51°27.348 3°11.262 2.9 330 19.2 101420 54
2011-08-03 12:02 51°27.339 3°11.578 2.8 333 19.2 101420 53
2011-08-03 12:03 51°27.315 3°11.897 2.3 334 19.2 101420 53
2011-08-03 12:04 51°27.297 3°12.216 1.9 332 19.2 101420 53
2011-08-03 12:05 51°27.287 3°12.535 3.1 327 19.2 101420 53
2011-08-03 12:06 51°27.282 3°12.853 2.4 330 19.2 101420 53
2011-08-03 12:07 51°27.285 3°13.173 2.7 327 19.2 101420 54
2011-08-03 12:08 51°27.27 3°13.493 2.7 331 19.2 101420 54
2011-08-03 12:09 51°27.22 3°13.736 -999 358 19.1 101420 53
2011-08-03 12:10 51°27.142 3°13.816 -999 19 19.1 101420 52
2011-08-03 12:11 51°27.095 3°13.857 -999 33 19 101420 53
2011-08-03 12:12 51°27.046 3°13.904 -999 34 19.1 101420 53
2011-08-03 12:13 51°27.002 3°13.956 -999 39 19.1 101420 53
2011-08-03 12:14 51°26.965 3°14.009 -999 26 19 101420 53
2011-08-03 12:15 51°26.934 3°14.064 -999 26 19 101420 53
2011-08-03 12:16 51°26.91 3°14.123 -999 26 19 101420 54
2011-08-03 12:17 51°26.893 3°14.18 -999 26 19 101430 53
2011-08-03 12:18 51°26.885 3°14.251 -999 26 19 101430 52
2011-08-03 12:19 51°26.886 3°14.334 -999 266 19.1 101430 53
2011-08-03 12:20 51°26.896 3°14.415 -999 259 19.2 101430 53
2011-08-03 12:21 51°26.914 3°14.488 -999 255 19.2 101430 53
2011-08-03 12:22 51°26.938 3°14.552 -999 254 19.3 101430 53
2011-08-03 12:23 51°26.968 3°14.609 -999 246 19.4 101430 53
2011-08-03 12:24 51°27.001 3°14.652 2.8 20 19.5 101430 53
2011-08-03 12:25 51°27.028 3°14.619 3.3 323 19.5 101430 53
2011-08-03 12:26 51°26.994 3°14.535 3.4 348 19.4 101430 52
2011-08-03 12:27 51°26.904 3°14.474 4.4 350 19.2 101420 51
2011-08-03 12:28 51°26.803 3°14.395 4.7 338 19 101430 52
2011-08-03 12:29 51°26.781 3°14.289 4.1 318 19 101430 52
2011-08-03 12:30 51°26.82 3°14.257 3.5 28 19.1 101430 53
2011-08-03 12:31 51°26.884 3°14.249 4.3 21 19.1 101430 53
2011-08-03 12:32 51°26.94 3°14.214 2.9 25 19.1 101430 53
2011-08-03 12:33 51°26.939 3°14.201 2.1 28 19.1 101430 52
2011-08-03 12:34 51°26.926 3°14.196 0.9 30 19.2 101430 51
2011-08-03 12:35 51°26.911 3°14.194 -999 25 19.2 101430 52
2011-08-03 12:36 51°26.897 3°14.194 -999 25 19.2 101430 53
2011-08-03 12:37 51°26.882 3°14.197 -999 25 19.3 101430 53
2011-08-03 12:38 51°26.866 3°14.202 -999 25 19.4 101430 53
2011-08-03 12:39 51°26.851 3°14.208 -999 246 19.4 101430 52
2011-08-03 12:40 51°26.835 3°14.215 -999 249 19.5 101440 52
2011-08-03 12:41 51°26.82 3°14.224 0.1 253 19.6 101430 52
2011-08-03 12:42 51°26.804 3°14.232 1.6 252 19.7 101440 52
2011-08-03 12:43 51°26.788 3°14.242 0.2 252 19.8 101430 53
2011-08-03 12:44 51°26.77 3°14.251 -999 252 19.8 101430 52
2011-08-03 12:45 51°26.753 3°14.261 -999 251 19.9 101430 52
2011-08-03 12:46 51°26.734 3°14.272 -999 252 19.9 101430 52
2011-08-03 12:47 51°26.716 3°14.283 -999 252 19.9 101430 52
2011-08-03 12:48 51°26.698 3°14.294 -999 252 19.9 101430 51
2011-08-03 12:49 51°26.679 3°14.306 -999 255 20 101430 51
2011-08-03 12:50 51°26.66 3°14.318 -999 255 20 101430 50
2011-08-03 12:51 51°26.641 3°14.33 -999 256 20.1 101430 51
2011-08-03 12:52 51°26.622 3°14.343 -999 256 20.1 101430 51
2011-08-03 12:53 51°26.623 3°14.346 -999 27 20.2 101430 51
2011-08-03 12:54 51°26.687 3°14.321 -999 316 20.1 101430 50
2011-08-03 12:55 51°26.792 3°14.231 -999 321 20 101420 50
2011-08-03 12:56 51°26.912 3°14.1 -999 322 19.9 101420 50
2011-08-03 12:57 51°26.983 3°13.865 8.4 328 19.9 101420 50
2011-08-03 12:58 51°26.93 3°13.562 7.2 331 19.7 101420 48
2011-08-03 12:59 51°26.859 3°13.255 8.2 329 19.6 101420 51
2011-08-03 13:00 51°26.793 3°12.947 9.5 329 19.5 101420 51
2011-08-03 13:01 51°26.738 3°12.635 7.5 330 19.5 101420 51
2011-08-03 13:02 51°26.675 3°12.326 6.2 329 19.5 101420 51
2011-08-03 13:03 51°26.593 3°12.026 7.6 331 19.4 101420 52
2011-08-03 13:04 51°26.434 3°11.801 6.6 333 19.4 101420 52
2011-08-03 13:05 51°26.252 3°11.612 7 331 19.4 101420 51
2011-08-03 13:06 51°26.084 3°11.394 7.9 332 19.3 101420 50
2011-08-03 13:07 51°25.911 3°11.181 6.9 332 19.3 101410 52
2011-08-03 13:08 51°25.737 3°10.973 6.3 331 19.3 101420 52
2011-08-03 13:09 51°25.555 3°10.78 7.1 331 19.3 101420 53
2011-08-03 13:10 51°25.38 3°10.576 7.8 331 19.3 101420 52
2011-08-03 13:11 51°25.201 3°10.384 5.9 330 19.3 101420 53
2011-08-03 13:12 51°25.022 3°10.196 6.2 330 19.3 101420 53
2011-08-03 13:13 51°24.842 3°10.016 7 330 19.3 101420 53
2011-08-03 13:14 51°24.659 3°9.848 7.1 331 19.3 101420 51
2011-08-03 13:15 51°24.469 3°9.701 6 332 19.3 101420 52
2011-08-03 13:16 51°24.263 3°9.621 6.2 334 19.3 101420 52
2011-08-03 13:17 51°24.063 3°9.549 6.5 333 19.3 101420 52
2011-08-03 13:18 51°23.86 3°9.5 6.6 331 19.4 101420 50
2011-08-03 13:19 51°23.666 3°9.412 6.4 332 19.5 101420 51
2011-08-03 13:20 51°23.483 3°9.285 6.1 332 19.6 101420 50
2011-08-03 13:21 51°23.299 3°9.158 6.3 332 19.7 101420 50
2011-08-03 13:22 51°23.112 3°9.032 7.1 336 19.8 101420 47
2011-08-03 13:23 51°22.922 3°8.92 7.1 334 19.8 101420 49
2011-08-03 13:24 51°22.74 3°8.792 8.1 334 19.9 101420 48
2011-08-03 13:25 51°22.554 3°8.675 5.8 335 20 101420 49
2011-08-03 13:26 51°22.375 3°8.543 6 335 20 101420 48
2011-08-03 13:27 51°22.188 3°8.428 6.8 337 20 101420 48
2011-08-03 13:28 51°22.008 3°8.291 7.9 337 20 101420 47
2011-08-03 13:29 51°21.827 3°8.154 7 338 20 101420 47
2011-08-03 13:30 51°21.65 3°8.013 6.8 338 20.1 101420 45
2011-08-03 13:31 51°21.475 3°7.879 6.6 339 20.2 101420 48
2011-08-03 13:32 51°21.301 3°7.748 8.5 337 20.3 101410 46
2011-08-03 13:33 51°21.154 3°7.56 6.5 336 20.3 101420 47
2011-08-03 13:34 51°21.006 3°7.374 7.9 337 20.3 101420 47
2011-08-03 13:35 51°20.847 3°7.214 7.2 337 20.3 101410 47
2011-08-03 13:36 51°20.698 3°7.038 7.3 339 20.3 101410 47
2011-08-03 13:37 51°20.552 3°6.856 9.8 341 20.3 101410 46
2011-08-03 13:38 51°20.394 3°6.697 6 342 20.2 101410 46
2011-08-03 13:39 51°20.241 3°6.532 7.2 340 20.2 101410 47
2011-08-03 13:40 51°20.094 3°6.357 7 342 20.2 101410 47
2011-08-03 13:41 51°19.953 3°6.177 6.8 342 20.2 101410 48
2011-08-03 13:42 51°19.799 3°6.025 7.6 343 20.2 101410 48
2011-08-03 13:43 51°19.649 3°5.866 8.2 343 20 101400 48
2011-08-03 13:44 51°19.505 3°5.701 6.5 342 20 101410 49
2011-08-03 13:45 51°19.365 3°5.533 6.1 342 20 101410 48
2011-08-03 13:46 51°19.223 3°5.371 6.9 341 20 101410 47
2011-08-03 13:47 51°19.091 3°5.185 8.4 340 20 101410 49
2011-08-03 13:48 51°18.974 3°4.979 9.1 340 20 101400 49
2011-08-03 13:49 51°18.872 3°4.756 6.3 339 20 101400 48
2011-08-03 13:50 51°18.781 3°4.523 6.1 340 20 101400 49
2011-08-03 13:51 51°18.681 3°4.301 7.3 339 20 101400 50
2011-08-03 13:52 51°18.591 3°4.068 6.3 340 20 101390 50
2011-08-03 13:53 51°18.499 3°3.84 7.5 338 20.1 101400 50
2011-08-03 13:54 51°18.401 3°3.621 6.3 340 20 101390 48
2011-08-03 13:55 51°18.315 3°3.387 6.7 341 20 101390 49
2011-08-03 13:56 51°18.215 3°3.169 7 341 20.1 101400 49
2011-08-03 13:57 51°18.127 3°2.938 7.5 339 20.1 101400 50
2011-08-03 13:58 51°18.039 3°2.709 7.1 339 20.1 101400 50
2011-08-03 13:59 51°17.961 3°2.468 8.3 339 20 101400 49
2011-08-03 14:00 51°17.869 3°2.238 7.7 339 20 101400 50
2011-08-03 14:01 51°17.782 3°2.002 6.9 339 20 101400 49
2011-08-03 14:02 51°17.695 3°1.771 7.8 341 20 101400 49
2011-08-03 14:03 51°17.604 3°1.542 9.7 339 20 101400 49
2011-08-03 14:04 51°17.519 3°1.308 8 339 20 101400 50
2011-08-03 14:05 51°17.43 3°1.077 6.1 341 20 101400 50
2011-08-03 14:06 51°17.35 3°0.841 6.7 339 20 101410 50
2011-08-03 14:07 51°17.257 3°0.615 6.9 342 19.9 101410 50
2011-08-03 14:08 51°17.17 3°0.385 6.9 342 19.9 101410 50
2011-08-03 14:09 51°17.073 3°0.163 6.9 342 19.9 101410 50
2011-08-03 14:10 51°16.99 2°59.927 8.1 340 19.9 101410 49
2011-08-03 14:11 51°16.894 2°59.708 6.3 342 19.8 101410 50
2011-08-03 14:12 51°16.808 2°59.476 5.8 343 19.9 101410 51
2011-08-03 14:13 51°16.714 2°59.251 7.8 341 19.8 101410 51
2011-08-03 14:14 51°16.631 2°59.014 7.2 343 19.8 101410 51
2011-08-03 14:15 51°16.541 2°58.781 7.9 341 19.8 101400 51
2011-08-03 14:16 51°16.447 2°58.553 7.9 343 19.8 101410 51
2011-08-03 14:17 51°16.358 2°58.317 6.7 341 19.8 101400 51
2011-08-03 14:18 51°16.262 2°58.086 7.7 343 19.8 101400 50
2011-08-03 14:19 51°16.175 2°57.846 6.9 343 19.8 101400 51
2011-08-03 14:20 51°16.066 2°57.627 8.1 342 19.8 101400 52
2011-08-03 14:21 51°15.968 2°57.397 6.6 342 19.8 101400 51
2011-08-03 14:22 51°15.868 2°57.169 7.3 343 19.8 101400 52
2011-08-03 14:23 51°15.774 2°56.936 7.2 343 19.8 101400 52
2011-08-03 14:24 51°15.68 2°56.706 5.7 343 19.7 101410 51
2011-08-03 14:25 51°15.573 2°56.492 6.5 343 19.6 101410 50
2011-08-03 14:26 51°15.469 2°56.271 6.7 344 19.6 101410 49
2011-08-03 14:27 51°15.351 2°56.074 6.5 344 19.6 101410 52
2011-08-03 14:28 51°15.225 2°55.886 5.8 342 19.6 101410 52
2011-08-03 14:29 51°15.112 2°55.679 6.4 342 19.6 101410 51
2011-08-03 14:30 51°14.999 2°55.475 6.7 342 19.6 101410 51
2011-08-03 14:31 51°14.881 2°55.282 6.3 341 19.6 101410 52
2011-08-03 14:32 51°14.749 2°55.112 5.6 341 19.6 101410 52
2011-08-03 14:33 51°14.591 2°55.008 4.9 337 19.7 101420 51
2011-08-03 14:34 51°14.415 2°55.111 4.6 339 19.7 101420 49
2011-08-03 14:35 51°14.257 2°55.294 3.2 343 19.7 101420 52
2011-08-03 14:36 51°14.125 2°55.414 2 342 19.7 101420 51
2011-08-03 14:37 51°14.002 2°55.504 0.6 345 19.7 101420 52
2011-08-03 14:38 51°13.902 2°55.575 -999 1 19.7 101420 51
2011-08-03 14:39 51°13.802 2°55.65 0.4 26 19.7 101420 51
2011-08-03 14:40 51°13.725 2°55.755 0.1 24 19.8 101430 51
2011-08-03 14:41 51°13.678 2°55.856 0.1 27 19.9 101430 51
2011-08-03 14:42 51°13.648 2°55.941 0.9 31 20.1 101430 48
2011-08-03 14:43 51°13.638 2°56.007 3.4 29 20.1 101430 49
2011-08-03 14:44 51°13.636 2°56.018 0.1 24 20.2 101420 47
2011-08-03 14:45 51°13.636 2°56.019 -999 26 20.5 101420 47
2011-08-03 14:46 51°13.636 2°56.02 0.9 29 20.9 101430 46